Regional Weather Roundup
Issued by NWS

Home | Current Version | Previous Version | Graphics & Text | Print | Product List | Glossary On
Versions: 1 2 3 4 5 6 7 8 9 10 11 12 13 14 15 16 17 18 19 20 21 22 23 24 25 26 27 28 29 30 31 32 33 34 35 36 37 38 39 40 41 42 43 44 45 46 47 48 49 50
797
ASUS43 KLSX 260457
RWRMO

WEATHER SUMMARY FOR MISSOURI
NATIONAL WEATHER SERVICE SPRINGFIELD MO
1200 AM CDT TUE SEP 26 2017

NOTE: "FAIR" INDICATES FEW OR NO CLOUDS BELOW 12,000 FEET WITH NO
       SIGNIFICANT WEATHER AND/OR OBSTRUCTIONS TO VISIBILITY.
       CURRENT SKY AND/OR WEATHER CONDITIONS ARE NOT AVAILABLE FOR
       CHILLICOTHE AND FARMINGTON.

MOZ001>031-035>038-043-044-053-054-260600-
...NORTHERN AND WESTERN MISSOURI...

CITY           SKY/WX    TMP DP  RH WIND       PRES   REMARKS
KANSAS CTY INT CLOUDY    66  65  96 NE10      29.95F
LEE`S SUMMIT   CLOUDY    69  65  86 NW9       29.96S
ST JOSEPH      LGT RAIN  65  65 100 NE7       29.94F

$$
MOZ066>068-077>081-088>096-101>105-260600-
...SOUTHWEST MISSOURI...

CITY           SKY/WX    TMP DP  RH WIND       PRES   REMARKS
SPRINGFIELD    PTCLDY    72  63  73 SE7       29.95S
JOPLIN         MOCLDY    73  65  75 S7        29.92F

$$
MOZ032>034-039>042-045>050-055>058-069>072-260600-
...CENTRAL MISSOURI...

CITY           SKY/WX    TMP DP  RH WIND       PRES   REMARKS
COLUMBIA       NOT AVBL
JEFFERSON CITY CLEAR     69  65  86 SE5       29.93S
ROLLA          CLEAR     71  61  70 S7        29.98R
SEDALIA        MOCLDY    71  68  90 S7        29.93F
WARRENSBURG    CLOUDY    72  64  78 W9        29.93R

$$
MOZ051-052-059>065-260600-
...EAST CENTRAL MISSOURI...

CITY           SKY/WX    TMP DP  RH WIND       PRES   REMARKS
ST LOUIS INTL  CLEAR     79  62  56 S8        29.95S

$$
MOZ072>076-082>087-097>100-106>115-260600-
...SOUTH CENTRAL AND SOUTHEAST MISSOURI...

CITY           SKY/WX    TMP DP  RH WIND       PRES   REMARKS
CAPE GIRARDEAU CLEAR     66  63  90 CALM      29.96R
POPLAR BLUFF   CLEAR     67  65  93 CALM      29.95S
WEST PLAINS    CLEAR     67  62  84 CALM      29.99S

$$



USA.gov is the U.S. government's official web portal to all federal, state and local government web resources and services.